PRÉPARATION DES VOLS

Pour bien préparer vos sorties, pensez à télécharger la fiche technique de votre avion, la check-list, le manuel de vol, le devis de centrage ou encore un modèle de Log de Nav.

 

Type : 2 places train classique

Moteur : Continental 90 cv.

Performances : 140 km/h

Type : 2/3 places en instruction & entraînement (devis de centrage).

Moteur : Lycoming 4 cyl. à plat, 108 cv.

Performances : 180 km/h

Autonomie : 4 h soit environ 720 km franchissables.

Avionique : 1 radio com Bendix/King, 1 VOR, 1 transpondeur.

Type : 3/4 places instruction, entraînement, voyage.

Moteur : Lycoming 4 cyl. à plat, 120 cv.

Performances : 190 km/h

Autonomie : 4 h soit environ 760 km franchissables.

Avionique : 1 radio com Bendix/King, 1 VOR, 1 transpondeur mode S, intercom 2 voies type.

 

Type : 3/4 places instruction, entraînement, voyage.

Moteur : Lycoming 4 cyl. à plat, 120 cv.

Performances : 190 km/h

Autonomie : 4 h soit environ 760 km franchissables.

Avionique : 1 radio com Bendix/King, 1 VOR, 1 transpondeur mode S, intercom 2 voies type.

 

Type : 4 places, pour entraînement et voyage.

Moteur : Robin Lycoming 4 cyl. à plat, 160 cv.

Performances : 206 km/h

Autonomie : 2 h 50 min soit environ 580 km de distance franchissable.

Avionique : 1 radio com Bendix/King, 1 VOR, 1 transpondeur mode S, intercom 4 voies.

 

 

 

 

 

 

 

Type : 4 places, avion de voyage

Moteur : Lycoming 4 cylindres à plat, 180CV

Vitesse de croisière : 225 km/h

Autonomie : 4h

Avionique : Garmin GNS 430, 1 VOR, 1 transpondeur mode S

 

Télécharger l’aide mémoire de la radio GTR 225A

Télécharger l’aide mémoire de la radio GNC 255A

Télécharger un log de nav

Log 1

Cliquez sur le formulaire pour le télécharger

Log_1*Notice d’utilisation*

Ce Log de Nav a été optimisé pour rendre les calculs automatiques sous Excel. Indiquez simplement vos points de report, les altitudes et les distances en NM. La feuille calcule alors le temps sans vent pour chaque étape et donne le total, qu’elle convertit en heure-minutes. Elle calcule également la distance totale et la convertit en kilomètres. Enfin, elle affiche le résultat du devis carburant, calculé automatiquement par le 2ème feuillet. Vous pouvez également inscrire préalablement les fréquences Radio et Nav. Les autres cases sont à remplir pendant le vol : date, top départ, heure estimée (grisée), heure réelle,horamètre, Atis…
Bons vols à tous !
Guillaume

Log 2

Cliquez sur le formulaire pour le télécharger

Log_2

Log 3

 Cliquez sur le formulaire pour le télécharger

Log_3

L’alphabet Morse et l’alphabet international

Alphabet International

Nos coordonnées

Aéroclub Renault

Aérodrome de Chavenay

78450 Chavenay-Villepreux

telephone

Atis

Télécharger la VAC LFPX

 

Télécharger le calcul de centrage

Télécharger la feuille ATIS

Télécharger le mémo VFR 2020-2021

 

Télécharger le formulaire de prorogation SEP

METARS / TAF de Toussus, Evreux, Orly et Roissy

Toussus

LFPN 050730Z AUTO 21008KT 9999 FEW010 15/11 Q1018 TEMPO 4000 BR BKN006

TAF TAF AMD LFPN 132015Z 1320/1420 17005KT 5000 BKN025 TEMPO 1320/1324 2000 BR OVC008 PROB30 TEMPO 1320/1324 0800 FG OVC002

Evreux

LFOE 050830Z AUTO 23011KT 9999 OVC025 15/12 Q1018 BECMG 22015G25KT

TAF LFOE 050800Z 0509/0609 22011KT 9999 OVC025 BECMG 0509/0511 22015G25KT TEMPO 0517/0519 28015G25KT 4000 RA SCT020 OVC030 BECMG 0519/0521 28010KT CAVOK PROB30 TEMPO 0601/0605 4000 BR

Orly

LFPO 050830Z 22010KT 190V250 9999 SCT013 15/13 Q1019 NOSIG

TAF LFPO 050500Z 0506/0612 20006KT 9999 SCT020 PROB30 TEMPO 0506/0510 4000 BR BKN008 BECMG 0510/0511 21012KT TEMPO 0511/0517 21016G26KT TEMPO 0520/0522 -RA BKN020 BECMG 0608/0610 32004KT

Roissy

LFPG 050830Z 20012KT 9999 FEW013 15/12 Q1018 NOSIG

TAF LFPG 050500Z 0506/0612 19010KT 9999 SCT033 TX21/0514Z TN10/0606Z PROB30 TEMPO 0507/0510 BKN006 BECMG 0509/0511 22015G25KT PROB40 TEMPO 0516/0521 30020G35KT BECMG 0520/0522 28010KT

Abonnez-vous à notre Newsletter !

*Champs obligatoires

En vous abonnant, vous acceptez de recevoir des e-mails d'information de l'Aéroclub Renault.

Vous pourrez vous désinscrire à tout moment.

Voir notre page de politique de confidentialité

Share This